Richmond, VA

11:40 PM EDT on September 20, 2019 (GMT -0400)
Richmond International

Weather History for KRIC - August, 2019

Change the Weather History Date:

Sunday, August 18, 2019

  Actual Average Record
Temperature  
Mean Temperature 82 °F 78 °F  
Max Temperature 94 °F 88 °F 97 °F (2002)
Min Temperature 70 °F 67 °F 54 °F (1941)
Degree Days  
Heating Degree Days 0 0  
Month to date heating degree days 0 0  
Since 1 June heating degree days 0 7  
Since 1 July heating degree days 0 0  
Cooling Degree Days 17 12  
Month to date cooling degree days 275 238  
Year to date cooling degree days 1455 1157  
Since 1 June cooling degree days 1126 996  
Growing Degree Days 32 (Base 50)    
Moisture  
Dew Point 70 °F    
Average Humidity 71    
Maximum Humidity 97    
Minimum Humidity 44    
Precipitation  
Precipitation 0.00 in 0.16 in 5.58 in (1985)
Month to date precipitation 1.48 2.76  
Year to date precipitation 31.92 28.09  
Snow  
Snow 0.00 in 0.00 in 0.00 in (2002)
Month to date snowfall 0.0 0.0  
Since 1 July snowfall 0.0 0.0  
Snow Depth 0.00 in    
Sea Level Pressure  
Sea Level Pressure 30.00 in    
Wind  
Wind Speed 4 mph (South)    
Max Wind Speed 12 mph    
Max Gust Speed 15 mph    
Visibility 10 miles    
Events      
T = Trace of Precipitation, MM = Missing Value Source: NWS Daily Summary

Daily Weather History Graph

Daily Weather History Graph

Search for Another Location

Airport or City:

Astronomy

Aug. 18, 2019 Rise Set
Actual Time 6:27 AM EDT 7:58 PM EDT
Civil Twilight 5:59 AM EDT 8:25 PM EDT
Nautical Twilight 5:26 AM EDT 8:58 PM EDT
Astronomical Twilight 4:51 AM EDT 9:33 PM EDT
Moon 9:55 PM EDT (8/18) 9:08 AM EDT (8/18)
Length of Visible Light 14h 25m
Length of Day
13h 30m
Waning Gibbous, 91% of the Moon is Illuminated
Aug 18
Waning Gibbous
Aug 23
Last Quarter
Aug 30
New
Sep 5
First Quarter
Sep 14
Full

Hourly Weather History & Observations

Time (EDT) Temp. Heat Index Dew Point Humidity Pressure Visibility Wind Dir Wind Speed Gust Speed Precip Events Conditions
12:54 AM 73.0 °F - 69.1 °F 87% 30.02 in 10.0 mi South 6.9 mph - N/A   Mostly Cloudy
1:54 AM 72.0 °F - 69.1 °F 91% 30.01 in 10.0 mi South 8.1 mph - N/A   Scattered Clouds
2:54 AM 72.0 °F - 69.1 °F 91% 30.00 in 10.0 mi South 3.5 mph - N/A   Mostly Cloudy
3:54 AM 71.1 °F - 68.0 °F 90% 30.00 in 10.0 mi South 4.6 mph - N/A   Mostly Cloudy
4:54 AM 71.1 °F - 68.0 °F 90% 30.00 in 10.0 mi Calm Calm - N/A   Mostly Cloudy
5:54 AM 71.1 °F - 69.1 °F 93% 30.00 in 10.0 mi Calm Calm - N/A   Mostly Cloudy
6:54 AM 70.0 °F - 68.0 °F 93% 30.02 in 10.0 mi Calm Calm - N/A   Scattered Clouds
7:54 AM 73.0 °F - 71.1 °F 93% 30.03 in 10.0 mi SSE 4.6 mph - N/A   Scattered Clouds
8:54 AM 77.0 °F - 72.0 °F 84% 30.03 in 10.0 mi South 6.9 mph - N/A   Partly Cloudy
9:54 AM 82.0 °F 87.4 °F 73.0 °F 74% 30.02 in 10.0 mi Variable 5.8 mph - N/A   Partly Cloudy
10:54 AM 84.9 °F 90.7 °F 72.0 °F 65% 30.03 in 10.0 mi Calm Calm - N/A   Partly Cloudy
11:54 AM 89.1 °F 96.0 °F 72.0 °F 57% 30.02 in 10.0 mi NNE 4.6 mph - N/A   Scattered Clouds
12:54 PM 89.1 °F 95.0 °F 71.1 °F 55% 30.03 in 10.0 mi SW 3.5 mph - N/A   Scattered Clouds
1:54 PM 90.0 °F 95.4 °F 70.0 °F 52% 30.03 in 10.0 mi South 5.8 mph - N/A   Scattered Clouds
2:54 PM 91.9 °F 96.9 °F 69.1 °F 47% 30.01 in 10.0 mi SSE 5.8 mph - N/A   Scattered Clouds
3:54 PM 93.0 °F 97.4 °F 68.0 °F 44% 29.98 in 10.0 mi Calm Calm - N/A   Partly Cloudy
4:54 PM 91.9 °F 97.4 °F 70.0 °F 48% 29.97 in 10.0 mi South 4.6 mph - N/A   Partly Cloudy
5:54 PM 91.0 °F 95.6 °F 69.1 °F 48% 29.96 in 10.0 mi Variable 4.6 mph - N/A   Partly Cloudy
6:54 PM 90.0 °F 96.4 °F 71.1 °F 54% 29.96 in 10.0 mi South 8.1 mph - N/A   Partly Cloudy
7:54 PM 86.0 °F 91.5 °F 71.1 °F 61% 29.96 in 10.0 mi SSE 5.8 mph - N/A   Partly Cloudy
8:54 PM 82.9 °F 88.8 °F 73.0 °F 72% 29.98 in 10.0 mi SSE 4.6 mph - N/A   Clear
9:54 PM 80.1 °F 84.2 °F 73.0 °F 79% 29.99 in 10.0 mi SE 6.9 mph - N/A   Clear
10:54 PM 79.0 °F - 73.0 °F 82% 30.00 in 10.0 mi Calm Calm - N/A   Partly Cloudy
11:54 PM 78.1 °F - 73.0 °F 84% 30.00 in 10.0 mi SSE 4.6 mph - N/A   Partly Cloudy